Hourly Data Report for September 04, 2017

All times are specified in Local Standard Time (LST). Add 1 hour to adjust for Daylight Saving Time where and when it is observed.

PANGNIRTUNG
NUNAVUT

66°08'36.300" N
65°42'40.500" W
22.60 m
2403049
71826
WXP

Download Data

Hourly Data (September 2017)
Hourly Data Report for September 4, 2017
Temp Definition
°C
Dew Point Temp Definition
°C
Rel Hum Definition
%
Wind Dir Definition
10's deg

Wind Spd Definition
km/h
Visibility Definition
km
Stn Press Definition
kPa
Hmdx Definition


Wind Chill Definition


Weather Definition


TIME
00:00 5.4 1.2 74 8 10   100.33     LegendNANA
01:00 5.0 1.2 76 8 9   100.33     LegendNANA
02:00 4.8 0.6 74 8 11   100.34     LegendNANA
03:00 4.5 0.7 76 6 10   100.37     LegendNANA
04:00 4.5 0.7 77 6 10   100.37     LegendNANA
05:00 4.4 0.7 77 4 15   100.41     LegendNANA
06:00 4.5 0.7 77 9 8   100.42     LegendNANA
07:00 4.9 0.7 74 6 8   100.44     LegendNANA
08:00 5.2 1.1 75 6 6   100.44     LegendNANA
09:00 5.6 0.5 70 3 5   100.45     LegendNANA
10:00 4.9 2.4 83 26 12   100.47     LegendNANA
11:00 5.1 2.3 82 26 17   100.47     LegendNANA
12:00 4.5 1.9 84 25 21   100.49     LegendNANA
13:00 4.6 2.4 86 25 20   100.52     LegendNANA
14:00 4.6 1.4 80 25 20   100.55     LegendNANA
15:00 4.4 1.0 79 25 20   100.57     LegendNANA
16:00 4.1 1.3 82 25 20   100.59     LegendNANA
17:00 3.7 1.3 84 25 19   100.61     LegendNANA
18:00 3.5 0.9 83 24 17   100.63     LegendNANA
19:00 3.2 1.0 85 24 18   100.66     LegendNANA
20:00 2.7 1.1 89 24 17   100.69     LegendNANA
21:00 2.4 1.1 91 24 14   100.69     LegendNANA
22:00 2.2 1.2 93 24 13   100.68     LegendNANA
23:00 2.1 1.1 93 24 11   100.68     LegendNANA

Notes on Data Quality.

Legend

  • E = Estimated
  • M = Missing
  • NA = Not Available
  • ‡ = Partner data that is not subject to review by the National Climate Archives
Date modified: